TOURFACTS.DK  
Stats and Facts from Tour de France.

Tour de France 2019 starts in 354 days
  Riders   Stages   Teams   Summits   Yearly  


 
Search by year

After 2018 - Stage 9:
 15000 starters.
  5163 different riders.
  639 teams.
  2241 stages.
  456 restdays.
  441138.60 km.
  5662 abandonnees.


Top 3
GC
Christopher Froome86:20:55
Rigoberto Urán86:21:49
Romain Bardet86:23:15
Climb
Warren Barguil169 pt.
Primoz Roglic80 pt.
Thomas De Gendt64 pt.
Sprint
Michael Matthews359 pt.
André Greipel234 pt.
Edvald Boasson Hagen220 pt.
Youth
Simon Yates86:27:09
Louis Meintjes86:29:15
Emanuel Buchmann86:54:16
Facts from Tour de France 1964
  |   Stages.  |   Stage winners.  |   Days in yellow  |   Average speed.  |   Route.  |   Teams.  |   All riders.  |   Rookies.  |  

  |   Withdrawls.  |   GC.  |   Polka  |   Green  |   White  |   Summits. (In tour)  |   Miscellaneous.  |  

Stage 8 on June 29th. 1964
         Owning:    Joseph Groussard    
Pick a stage:  1 2 3a 3b 4 5 6 7 8 9 10a 10b 11 12 13 14 15 16 17 18 19 20 21 22a 22b
  Thonon-les-BainsBriançon | Dist: 249.50 km.
Cat: 2Col du TélégrapheESPFederico Bahamontes
10 points
 
Cat: 1Col du GalibierESPFederico Bahamontes
15 points
 

Average speed for all riders in stage:  32,847 km./hr.
    Place:Name:Team:Time:Km/h:
ESPFederico BahamontesFRAMargnat-Paloma-Dunlop07:20:52  +  00:00:00=33,956 
FRARaymond PoulidorFRAMercier-BP-Hutchinson07:22:24  +  00:01:32=33,838 
GERHans JunkermannBELWiel´s-Groene Leeuw07:22:25  +  00:01:33=33,837 
4 FRAAndré FoucherFRAPelforth-Sauvage-Lejeune-Wolbe..07:22:25  +  00:01:33=33,837 
5 FRAHenri AngladeFRAPelforth-Sauvage-Lejeune-Wolbe..07:22:25  +  00:01:33=33,837 
6 FRAJoseph GroussardFRAPelforth-Sauvage-Lejeune-Wolbe..07:22:25  +  00:01:33=33,837 
7 FRAJean-Claude LebaubeFRASaint Raphael-Gitane-Campagnol..07:22:28  +  00:01:36=33,833 
8 FRAJacques AnquetilFRASaint Raphael-Gitane-Campagnol..07:22:41  +  00:01:49=33,816 
9 ESPEsteban MartinFRAMargnat-Paloma-Dunlop07:23:10  +  00:02:18=33,780 
10 ENGTom SimpsonFRAPeugeot-BP-Englebert07:23:31  +  00:02:39=33,753 
11 ESPJulio JiménezESPKas-Kaskol07:23:31  +  00:02:39=33,753 
12 ESPMiguel PachecoESPFerrys07:23:53  +  00:03:01=33,725 
13 ESPFernando ManzanequeESPFerrys07:24:39  +  00:03:47=33,667 
14 FRAJoseph NovalesFRAMargnat-Paloma-Dunlop07:25:28  +  00:04:36=33,605 
15 BELGilbert Desmet 1BELWiel´s-Groene Leeuw07:25:37  +  00:04:45=33,594 
16 NEDJo De RooFRASaint Raphael-Gitane-Campagnol..07:25:42  +  00:04:50=33,588 
17 BELArmand DesmetBELSolo-Superia07:25:42  +  00:04:50=33,588 
18 ESPJosé Pérez FrancésESPFerrys07:25:42  +  00:04:50=33,588 
19 BELEdward SelsBELSolo-Superia07:26:33  +  00:05:41=33,524 
20 BELJos HoevenaersBELFlandria-Romeo07:26:33  +  00:05:41=33,524 
21 GERRudi AltigFRASaint Raphael-Gitane-Campagnol..07:26:39  +  00:05:47=33,516 
22 BELEddy PauwelsFRAMargnat-Paloma-Dunlop07:28:09  +  00:07:17=33,404 
23 ESPJoaquin GaleraESPKas-Kaskol07:28:57  +  00:08:05=33,344 
24 FRAAndré ZimmermannFRASaint Raphael-Gitane-Campagnol..07:28:59  +  00:08:07=33,342 
25 NEDHuub ZilverbergBELFlandria-Romeo07:28:59  +  00:08:07=33,342 
26 GERKarl-Heinz KundeBELWiel´s-Groene Leeuw07:29:44  +  00:08:52=33,286 
27 ITAArnaldo PambiancoITASalvarani07:29:44  +  00:08:52=33,286 
28 FRAClaude MattioFRAMargnat-Paloma-Dunlop07:29:47  +  00:08:55=33,283 
29 ENGMichael WrightBELWiel´s-Groene Leeuw07:29:55  +  00:09:03=33,273 
30 ITAVittorio AdorniITASalvarani07:29:55  +  00:09:03=33,273 
31 FRAHenry DuezFRAPeugeot-BP-Englebert07:29:55  +  00:09:03=33,273 
32 FRARaymond MastrottoFRAPeugeot-BP-Englebert07:30:01  +  00:09:09=33,265 
33 BELCamiel VynckeBELFlandria-Romeo07:32:20  +  00:11:28=33,095 
34 NEDJan JanssenFRAPelforth-Sauvage-Lejeune-Wolbe..07:32:20  +  00:11:28=33,095 
35 NEDCees HaastNLDTelevisier07:32:43  +  00:11:51=33,067 
36 BELFerdinand BrackeFRAPeugeot-BP-Englebert07:32:43  +  00:11:51=33,067 
37 BELWilly MontyFRAPelforth-Sauvage-Lejeune-Wolbe..07:32:43  +  00:11:51=33,067 
38 FRALouis RostollanFRASaint Raphael-Gitane-Campagnol..07:33:22  +  00:12:30=33,020 
39 FRAJean StablinskiFRASaint Raphael-Gitane-Campagnol..07:33:22  +  00:12:30=33,020 
40 ESPRogelio HernandezESPFerrys07:33:22  +  00:12:30=33,020 
41 NEDAlbertus GeldermansFRASaint Raphael-Gitane-Campagnol..07:33:22  +  00:12:30=33,020 
42 BELWilly BocklantBELFlandria-Romeo07:35:11  +  00:14:19=32,888 
43 ITAVito TacconeITASalvarani07:35:11  +  00:14:19=32,888 
44 ITAItalo MazzacuratiITASalvarani07:35:11  +  00:14:19=32,888 
45 ESPEusebio VelezESPKas-Kaskol07:36:53  +  00:16:01=32,765 
46 FRAGuy EpaudFRAPelforth-Sauvage-Lejeune-Wolbe..07:37:05  +  00:16:13=32,751 
47 FRARobert PoulotFRAMercier-BP-Hutchinson07:38:11  +  00:17:19=32,673 
48 BELBenoni BeheytBELWiel´s-Groene Leeuw07:38:11  +  00:17:19=32,673 
49 BELEdgard SorgeloosBELSolo-Superia07:38:11  +  00:17:19=32,673 
50 BELVictor Van SchilFRAMercier-BP-Hutchinson07:38:11  +  00:17:19=32,673 
51 ENGVic DensonBELSolo-Superia07:38:11  +  00:17:19=32,673 
52 NEDPiet DamenNLDTelevisier07:38:11  +  00:17:19=32,673 
53 BELRik WoutersNLDTelevisier07:38:11  +  00:17:19=32,673 
54 BELArthur DecabooterBELSolo-Superia07:38:11  +  00:17:19=32,673 
55 FRAEdouard DelbergheFRAPelforth-Sauvage-Lejeune-Wolbe..07:38:11  +  00:17:19=32,673 
56 FRAJean GraczykFRAMargnat-Paloma-Dunlop07:38:11  +  00:17:19=32,673 
57 BELMichel Van AerdeBELSolo-Superia07:38:11  +  00:17:19=32,673 
58 BELBernard Van De KerckhoveBELSolo-Superia07:38:49  +  00:17:57=32,627 
59 FRAJacques GestraudFRAMargnat-Paloma-Dunlop07:38:57  +  00:18:05=32,618 
60 ITAMario MinieriITASalvarani07:39:21  +  00:18:29=32,590 
61 ITAAntonio FranchiITASalvarani07:39:21  +  00:18:29=32,590 
62 ALGHubert FerrerFRAPelforth-Sauvage-Lejeune-Wolbe..07:39:21  +  00:18:29=32,590 
63 BELGilbert Desmet 2BELWiel´s-Groene Leeuw07:39:21  +  00:18:29=32,590 
64 FRARobert CazalaFRAMercier-BP-Hutchinson07:39:21  +  00:18:29=32,590 
65 IRLSeamus ElliottFRASaint Raphael-Gitane-Campagnol..07:39:21  +  00:18:29=32,590 
66 FRAPierre EveraertFRASaint Raphael-Gitane-Campagnol..07:39:21  +  00:18:29=32,590 
67 FRAJean-Pierre GenetFRAMercier-BP-Hutchinson07:39:21  +  00:18:29=32,590 
68 ESPJosé SeguFRAMargnat-Paloma-Dunlop07:39:21  +  00:18:29=32,590 
69 BELGuillaume Van TongerlooBELFlandria-Romeo07:39:21  +  00:18:29=32,590 
70 FRAPaul VermeulenFRAMercier-BP-Hutchinson07:39:21  +  00:18:29=32,590 
71 BELYvo MolenaersBELWiel´s-Groene Leeuw07:40:16  +  00:19:24=32,525 
72 ITABruno FantinatoITASalvarani07:40:16  +  00:19:24=32,525 
73 BELJozef TimmermanBELWiel´s-Groene Leeuw07:40:16  +  00:19:24=32,525 
74 FRAJean MilesiFRAMargnat-Paloma-Dunlop07:40:30  +  00:19:38=32,508 
75 FRACamille Le MennFRAPeugeot-BP-Englebert07:40:30  +  00:19:38=32,508 
76 ESPSebastián ElorzaESPKas-Kaskol07:40:30  +  00:19:38=32,508 
77 ESPFrancisco GabicESPKas-Kaskol07:40:30  +  00:19:38=32,508 
78 FRAAndré DarrigadeFRAMargnat-Paloma-Dunlop07:41:40  +  00:20:48=32,426 
79 FRAFrancois HamonFRAPeugeot-BP-Englebert07:41:40  +  00:20:48=32,426 
80 ESPAntonio BertranESPFerrys07:41:40  +  00:20:48=32,426 
81 ESPSalvador HonrubiaESPFerrys07:41:40  +  00:20:48=32,426 
82 ENGBarry HobanFRAMercier-BP-Hutchinson07:41:40  +  00:20:48=32,426 
83 ITABattista BabiniITASalvarani07:41:40  +  00:20:48=32,426 
84 FRAJean GaincheFRAMercier-BP-Hutchinson07:41:40  +  00:20:48=32,426 
85 BELFrans BrandsBELFlandria-Romeo07:41:40  +  00:20:48=32,426 
86 FRAAnatole NovakFRASaint Raphael-Gitane-Campagnol..07:41:40  +  00:20:48=32,426 
87 FRAJean-Claude LefebvreFRAPelforth-Sauvage-Lejeune-Wolbe..07:41:40  +  00:20:48=32,426 
88 BELJoseph PlanckaertBELFlandria-Romeo07:42:06  +  00:21:14=32,396 
89 ESPMiguel MartinESPKas-Kaskol07:43:16  +  00:22:24=32,314 
90 ESPJosé BernardezESPFerrys07:43:16  +  00:22:24=32,314 
91 FRAGeorges GroussardFRAPelforth-Sauvage-Lejeune-Wolbe..07:43:16  +  00:22:24=32,314 
92 ESPJuan UribezubiaESPKas-Kaskol07:43:16  +  00:22:24=32,314 
93 BELWilly DerbovenBELSolo-Superia07:43:16  +  00:22:24=32,314 
94 BELFrans AerenhoutsFRAMercier-BP-Hutchinson07:43:16  +  00:22:24=32,314 
95 NEDJo de HaanNLDTelevisier07:43:25  +  00:22:33=32,304 
96 NEDLeo van DongenNLDTelevisier07:43:25  +  00:22:33=32,304 
97 ESPLuis OtañoESPFerrys07:43:45  +  00:22:53=32,280 
98 NEDPiet van EstNLDTelevisier07:45:41  +  00:24:49=32,146 
99 NEDAlphonse SteutenNLDTelevisier07:45:41  +  00:24:49=32,146 
100 FRAGuy SeyveFRAPeugeot-BP-Englebert07:47:27  +  00:26:35=32,025 
101 BELFrans MelckenbeeckFRAMercier-BP-Hutchinson07:47:27  +  00:26:35=32,025 
102 BELJean-Baptiste ClaesBELWiel´s-Groene Leeuw07:47:29  +  00:26:37=32,023 
103 ESPAntonio BarrutiaESPKas-Kaskol07:56:14  +  00:35:22=31,434 
104 BELFrans VerbeeckBELWiel´s-Groene Leeuw08:01:33  +  00:40:41=31,087 

Withdrawls: 1
 
Rider
Team
Reason
105  ESPJosé MomeñeESPKas-KaskolDid not finish

Todays birthdays.

1876  Frédéric Rigaux
1896  Federico Gay
1901  Paul Delbart
1944  Jean-Pierre Ducasse
1948  Marc Lievens
1961  Willem Wijnant
1964  Miguel Indurain
1965  Gianni Faresin
1973  Stefano Garzelli
1982  André Greipel
1984  Alan Marangoni




Visits: